User: anonymous   Login
Location: Camp Creek
(33.9000°N, 111.8167°W)
Time: 10:54:43
(UTC-07:00)
Language:

Cosmos 1656 - Orbit

View from above orbital plane
View from above orbital plane
View from above satellite
View from above satellite

Ground track
Ground track

The orbit data is extracted from the following two-line orbital elements,

1 15755U 85042A   17116.92565559 -.00000047 +00000-0 +24040-6 0  9992
2 15755 071.1084 111.2371 0033839 133.6978 226.6961 14.20408469653144
Epoch (UTC): 26 April 2017 22:12:56
Eccentricity: 0.0033839
inclination: 71.1084°
perigee height: 799 km
apogee height: 848 km
right ascension of ascending node: 111.2371°
argument of perigee: 133.6978°
revolutions per day: 14.20408469
mean anomaly at epoch: 226.6961°
orbit number at epoch: 65314

The dashed part of the orbit path shows where the satellite is in the earth's shadow,  

DLR